User: anonymous   Login
Location: ??
(35.5138°N, 139.6953°E)
Time: 12:03:30
(UTC+00:00)
Language:

Cosmos 1331 Rocket - Orbit

View from above orbital plane
View from above orbital plane
View from above satellite
View from above satellite

Ground track
Ground track

The orbit data is extracted from the following two-line orbital elements,

1 13028U 82001B   20226.89557819 +.00000040 +00000-0 +21647-4 0  9997
2 13028 074.0407 063.2209 0020367 220.8824 139.0803 14.38404909022745
Epoch (UTC): 13 August 2020 21:29:37
Eccentricity: 0.0020367
inclination: 74.0407°
perigee height: 749 km
apogee height: 778 km
right ascension of ascending node: 63.2209°
argument of perigee: 220.8824°
revolutions per day: 14.38404909
mean anomaly at epoch: 139.0803°
orbit number at epoch: 2274

The dashed part of the orbit path shows where the satellite is in the earth's shadow,  

DLR